Skip Page Navigation
NASA JPL Caltech
NASA Logo - Jet Propulsion Laboratory + View the NASA Portal
+ Near-Earth Object (NEO) Program
Search JPL
JPL Home Earth Solar System Stars & Galaxies Technology
JPL Solar System Dynamics
BODIES ORBITS EPHEMERIDES TOOLS PHYSICAL DATA DISCOVERY FAQ SITE MAP
JPL Small-Body Database Browser
Search: [ help ]  
17569 (1994 LB8)
Classification: Main-belt Asteroid          SPK-ID: 2017569
Ephemeris | Orbit Diagram | Orbital Elements | Physical Parameters | Discovery Circumstances | Close-Approach Data ]

[ show orbit diagram ]
Orbital Elements at Epoch 2457600.5 (2016-Jul-31.0) TDB
Reference: JPL 18 (heliocentric ecliptic J2000)
 Element Value Uncertainty (1-sigma)   Units 
e .1008753438863597 6.4203e-08  
a 2.546150393090818 1.9179e-08 au
q 2.289306596601392 1.6204e-07 au
i 16.61695938337836 7.8132e-06 deg
node 253.8473768729322 2.8064e-05 deg
peri 14.64355296599918 5.5289e-05 deg
M 150.1510279314143 4.8296e-05 deg
tp 2456981.557486063609
(2014-Nov-20.05748606)
0.00019778 JED
period 1483.967896103113
4.06
1.6767e-05
4.591e-08
d
yr
n .2425928491750778 2.741e-09 deg/d
Q 2.802994189580245 2.1114e-08 au
  Orbit Determination Parameters
   # obs. used (total)      929  
   data-arc span      23884 days (65.39 yr)  
   first obs. used      1950-08-12  
   last obs. used      2016-01-02  
   planetary ephem.      DE431  
   SB-pert. ephem.      SB431-BIG16  
   condition code      0  
   fit RMS      .47027  
   data source      ORB  
   producer      Otto Matic  
   solution date      2016-Feb-25 19:15:59  

Additional Information
 Earth MOID = 1.27643 au 
 Jupiter MOID = 2.27021 au 
 T_jup = 3.377 
[ show covariance matrix ]

Ephemeris | Orbit Diagram | Orbital Elements | Physical Parameters | Discovery Circumstances | Close-Approach Data ]

Physical Parameter Table
Parameter Symbol Value Units Sigma Reference Notes
absolute magnitude H 13.0 mag n/a MPO350942  

17569 (1994 LB8)          Discovered 1994-Jun-08 by Debehogne, H., Elst, E. W. at La Silla
Reference: 20001013/Numbers.arcLast Updated: 2004-04-19

[ show close-approach data ]
Alternate Designations
 1994 LB8 = 1979 WC3 = 1998 KN36 = 1999 OV2 
Ephemeris | Orbit Diagram | Orbital Elements | Physical Parameters | Discovery Circumstances | Close-Approach Data ]
ABOUT SSD CREDITS/AWARDS PRIVACY/COPYRIGHT GLOSSARY LINKS
FirstGov 2016-May-06 07:22 UT
(server date/time)  
NASA Home Page
Site Manager:   Ryan S. Park
Webmaster  Alan B. Chamberlin